DMSP 5D-2 F13 DEB

Satellite information

Favourite Embed

Satellite Type and Status

DEBRISIN ORBIT

Key statistics

Satellite DMSP 5D-2 F13 DEB at a glance.

Uptime

11062

Days in orbit

Revolutions

≈ 14.2

Per day

Orbit

SSO

Sun Synchronous Orbit

Inclination

98.9

Latest

Satellite identification and parameters

Extended collection of information and parameters for DMSP 5D-2 F13 DEB.

Object identification

Identified? True

Debris? True

Object name: DMSP 5D-2 F13 DEB

International designator: 1995-015DP

Object number (NORAD): 40527

Object ID (CCSDS): 40527

Country: UNITED STATES OF AMERICA (US)

Current information (Y/N): Y

RCS size: SMALL

Orbital parameters

Period: 101.181 minutes

Inclination: 98.9275 deg

SMA: 7192.725 km

Apoapsis: 842.905 km

Periapsis: 786.274 km

RAAN: 170.9593 deg

Eccentricy: 0.0039367

Argument of periapsis: 311.2355 deg

Mean anomaly: 48.5433 deg

Mean motion: 14.23189124 rev/day

Mean motion (dot): 0.00002952 rev/day2

B* drag term: 0.0013153 1/REarth

Two-line elements (TLE)

Creation date: July 5, 2025, 4:36 a.m.

Reference frame: TEME

Reference center: EARTH

Epoch: July 4, 2025, 5:48 p.m. UTC

TLE line 0: 0 DMSP 5D-2 F13 DEB

TLE line 1: 1 40527U 95015DP 25185.74174298 .00002952 00000-0 13153-2 0 9994

TLE line 2: 2 40527 98.9275 170.9593 0039367 311.2355 48.5433 14.23189124529156

Live tracking on map

Real-time ground track for satellite DMSP 5D-2 F13 DEB.

In-orbit conjunctions

A list of the most updated potential collisions computed for object DMSP 5D-2 F13 DEB.

Target Orbit TCA Probability of collision Miss distance Type
FENGYUN 1C DEB SSO 2025-05-15 01:30:30 0.0001087551 236.0 (m) DEBRIS
COSMOS 1980 DEB LEO 2024-12-01 01:08:32 0.000182277 138.0 (m) DEBRIS
CZ-6A DEB SSO 2024-11-15 12:46:59 0.0002844926 731.0 (m) DEBRIS
METEOR 1-22 LEO 2024-07-02 03:50:02 0.0003289661 446.0 (m) PAYLOAD

Associated space launch

Military meteorological satellite

DMSP 5D-2 F13 DEB was lifted into orbit during the mission ‘Atlas E | DMSP-5D2 F13’, on board a Atlas E space rocket.

The launch took place on March 24, 1995, 2:05 p.m. from Space Launch Complex 3W.

For more information about the launch, click the button.

Launch to space Atlas E | DMSP-5D2 F13
Atlas E | DMSP-5D2 F13

Agency: N/A

Status: Launch Successful

Launch date: March 24, 1995, 2:05 p.m. UTC

Rocket: Atlas E

Launch pad: Space Launch Complex 3W

Location: Vandenberg SFB, CA, USA

...

Latest news about this satellite

There are no fresh news available about this satellite. Check back as we update our databases every day.


Newsletter sign-up

Weekly statistics, charts and insights to help you stay on top of the space industry.